Preview of NWS' New Version of Forecast
This preview is not operational and should not be used for support decisions.

Regional Weather Roundup (RWR)

Issued by National Weather Service (NWS)

                            
000
ASUS46 KPQR 221210
RWROR 

OREGON REGIONAL WEATHER ROUNDUP
NATIONAL WEATHER SERVICE PORTLAND OR
500 AM PDT SUN SEP 22 2019

NOTE: "FAIR" INDICATES FEW OR NO CLOUDS BELOW 12,000 FEET WITH
NO SIGNIFICANT WEATHER AND/OR OBSTRUCTIONS TO VISIBILITY.

ORZ001>013-221300-
NORTHWEST OREGON

  
CITY           SKY/WX    TMP DP  RH WIND       PRES   REMARKS
ASTORIA        CLOUDY    58  57  97 SE3       29.88F                  
6HR MIN TEMP:  57; 6HR MAX TEMP:  59; 6HR PCP:  0.01;                

TILLAMOOK      DRIZZLE   59  57  94 CALM      29.93F                  
NEWPORT        CLOUDY    59  59 100 CALM      29.96S FOG              
PORTLAND       CLOUDY    58  53  84 SE7       29.92F                  
6HR MIN TEMP:  57; 6HR MAX TEMP:  60;                                

VANCOUVER WA   CLOUDY    58  54  86 E5        29.92S                  
6HR MIN TEMP:  57; 6HR MAX TEMP:  61;                                

SCAPPOOSE      CLOUDY    58  56  93 CALM      29.91S                  
6HR MIN TEMP:  57; 6HR MAX TEMP:  62;                                

HILLSBORO      CLOUDY    56  54  93 NE3       29.91F                  
6HR MIN TEMP:  54; 6HR MAX TEMP:  58;                                

AURORA         CLOUDY    56  53  90 CALM      29.93S                  
6HR MIN TEMP:  55; 6HR MAX TEMP:  60;                                

MCMINNVILLE    CLOUDY    55  54  96 E3        29.91F                  
6HR MIN TEMP:  53; 6HR MAX TEMP:  58;                                

SALEM          MOCLDY    56  54  93 CALM      29.91S                  
6HR MIN TEMP:  54; 6HR MAX TEMP:  57;                                

CORVALLIS      MOCLDY    55  54  96 SE5       29.93F                  
EUGENE         MOCLDY    54  52  93 S6        29.94S                  
6HR MIN TEMP:  54; 6HR MAX TEMP:  58;                                

CRESWELL       CLEAR     52  52 100 CALM      29.94S                  
$$

ORZ021-028-221300-
SOUTHWEST OREGON

  
CITY           SKY/WX    TMP DP  RH WIND       PRES   REMARKS
NORTH BEND     LGT RAIN  61  61 100 CALM      29.97F FOG              
6HR MIN TEMP:  60; 6HR MAX TEMP:  61; 6HR PCP: TRACE;                

BROOKINGS      LGT RAIN  57  57 100 SE5       30.02R VSB 3/4          
ROSEBURG       MOCLDY    55  52  89 S3        29.95S                  
6HR MIN TEMP:  55; 6HR MAX TEMP:  61;                                

SEXTON SUMMIT  PTCLDY    54  41  61 S9        30.02S                  
6HR MIN TEMP:  53; 6HR MAX TEMP:  59;                                

GRANTS PASS    FAIR      50  46  87 CALM      30.02R                  
MEDFORD        MOCLDY    52  49  89 CALM      29.98S                  
6HR MIN TEMP:  52; 6HR MAX TEMP:  61;                                

$$

ORZ014>016-041-221300-
COLUMBIA GORGE

  
CITY           SKY/WX    TMP DP  RH WIND       PRES   REMARKS
TROUTDALE      CLOUDY    55  51  86 E5        29.92S                  
6HR MIN TEMP:  53; 6HR MAX TEMP:  57; 6HR PCP: TRACE;                

HOOD RIVER     MOCLDY    50  46  87 S3        29.92S                  
THE DALLES     MOCLDY    54  48  80 SE5       29.89F                  
6HR MIN TEMP:  53; 6HR MAX TEMP:  64;                                

$$

ORZ029>031-041-044-049-050-061>064-502-503-505>511-221300-
EASTERN OREGON

  
CITY           SKY/WX    TMP DP  RH WIND       PRES   REMARKS
MADRAS         MOCLDY    50  45  81 CALM      29.96S                  
REDMOND        MOCLDY    48  41  76 S8        29.96F                  
6HR MIN TEMP:  44; 6HR MAX TEMP:  52;                                

BEND           MOCLDY    50  46  87 SE6       29.96F                  
PRINEVILLE     PTCLDY    41  39  93 CALM      29.97F                  
KLAMATH FALLS  MOCLDY    41  39  93 CALM      30.04F                  
6HR MIN TEMP:  40; 6HR MAX TEMP:  48;                                

LAKEVIEW       CLEAR     34  33  96 NW6       30.08F                  
HERMISTON      CLEAR     52  46  80 SE5       29.88S                  
6HR MIN TEMP:  52; 6HR MAX TEMP:  60;                                

PENDLETON      CLEAR     53  44  71 SE5       29.90F                  
6HR MIN TEMP:  49; 6HR MAX TEMP:  59;                                

JOHN DAY       CLEAR     48  43  82 E9        30.02S                  
MEACHAM        CLEAR     36  33  89 CALM      29.99S                  
6HR MIN TEMP:  35; 6HR MAX TEMP:  43;                                

LA GRANDE      CLEAR     42  39  89 CALM      30.00F                  
6HR MIN TEMP:  40; 6HR MAX TEMP:  52;                                

BAKER CITY     CLEAR     40  37  89 CALM      30.04S                  
6HR MIN TEMP:  39; 6HR MAX TEMP:  49;                                

BURNS          CLEAR     37  33  85 CALM      30.06S                  
6HR MIN TEMP:  37; 6HR MAX TEMP:  45;                                

ROME             N/A     43  37  79 CALM      30.06S                  
6HR MIN TEMP:  41; 6HR MAX TEMP:  50;                                

ONTARIO        CLEAR     44  41  89 CALM      30.05S                  
6HR MIN TEMP:  44; 6HR MAX TEMP:  53;                                

$$